Home > Weather > Adliswil > Past weeks

Flag for Switzerland Past Weather in Adliswil, Zurich, Switzerland — Yesterday and Last 2 Weeks

Now
67 °F

Mild.


Feels Like: 67 °F
Forecast: 53 / 82 °F
Wind: 1 mph from East

Location: Zuerich-Fluntern

Current Time: Aug 24, 2016 at 10:54:07 AM

Latest Report: Aug 24, 2016 at 10:00 AM


Visibility: N/A

Pressure: 30.21 "Hg

Humidity: 76%

Dew Point: 59 °F

Location of AdliswilLocation

Past Weather in Adliswil — Graph

°F

Adliswil Temperature Yesterday

Maximum temperature yesterday: 79 °F (at 5:00 PM)
Minimum temperature yesterday: 54 °F (at 6:00 AM)
Average temperature yesterday: 66 °F

High & Low Weather Summary for the Past Weeks

 TemperatureHumidityPressure
High83 °F (Aug 14, 5:00 PM)97% (Aug 18, 6:00 PM)30.39 "Hg (Aug 18, 6:00 PM)
Low49 °F (Aug 11, 7:00 AM)39% (Aug 10, 3:00 PM)29.80 "Hg (Aug 17, 6:00 PM)
Average64 °F76%30.12 "Hg
* Reported Aug 9 9:00 AM — Aug 24 9:00 AM, Adliswil, Weather by CustomWeather, © 2016

Note: Actual official high and low records may vary slightly from our data, if they occured in-between our weather recording intervals... More about our weather records

Advertising

Adliswil Weather History for the Previous 24 Hours

Scroll right to see more
 ConditionsComfort  
Time TempWeatherWind HumidityBarometerVisibility
9:00 AM
Wed, Aug 24
64 °FMild.3 mph84%30.21 "HgN/A
8:00 AM61 °FCool.No wind90%30.23 "HgN/A
7:00 AM59 °FCool.3 mph93%30.22 "HgN/A
6:00 AM59 °FCool.3 mph92%30.22 "HgN/A
5:00 AM59 °FCool.2 mph92%30.21 "HgN/A
4:00 AM61 °FCool.8 mph87%30.22 "HgN/A
3:00 AM61 °FCool.3 mph87%30.22 "HgN/A
2:00 AM63 °FMild.7 mph82%30.22 "HgN/A
1:00 AM64 °FMild.6 mph80%30.23 "HgN/A
12:00 AM64 °FMild.5 mph80%30.23 "HgN/A
11:00 PM
Tue, Aug 23
65 °FMild.3 mph77%30.24 "HgN/A
10:00 PM67 °FMild.3 mph73%30.24 "HgN/A
9:00 PM69 °FMild.5 mph70%30.23 "HgN/A
8:00 PM71 °FSunny.3 mph63%30.22 "HgN/A
7:00 PM75 °FMild.6 mph56%30.20 "HgN/A
6:00 PM78 °FWarm.7 mph47%30.20 "HgN/A
5:00 PM79 °FWarm.6 mph47%30.20 "HgN/A
4:00 PM78 °FWarm.7 mph50%30.22 "HgN/A
3:00 PM77 °FMild.6 mph42%30.24 "HgN/A
2:00 PM76 °FSunny.7 mph47%30.25 "HgN/A
1:00 PM74 °FMild.8 mph52%30.27 "HgN/A
12:00 PM70 °FMild.6 mph58%30.30 "HgN/A
11:00 AM68 °FMild.5 mph65%30.32 "HgN/A
10:00 AM62 °FMild.2 mph73%30.35 "HgN/A
Weather by CustomWeather, © 2016

See weather overviewHow to use our weather pages